Terminal Aerodrome Forecast
Issued by NWS Twin Cities, MN

Home | Current Version | Previous Version | Graphics & Text | Print | Product List | Glossary On
Versions: 1 2 3 4 5 6 7 8 9 10 11 12 13
000
FTUS43 KMPX 132300
TAFSTC
TAF
KSTC 132321Z 1400/1424 18009KT P6SM BKN060
     FM140900 23007KT P6SM FEW060 SCT200
     FM141500 28012KT P6SM BKN180=

USA.gov is the U.S. government's official web portal to all federal, state and local government web resources and services.